STARLINK-33607, 63323

Orbit data source: Space-Track

STARLINK-33607, 63323 is a payload satellite owned by SpaceX/Seattle (US) in LEO that was launched on Tue, 18 Mar 2025 UTC via an FALCON 9 launch vehicle from the Air Force Eastern Test Range (AFETR). Payload-class satellites include a variety of spacecraft equipped with specific instruments for various scientific and technological missions. These include communications satellites like Starlink; space stations such as the ISS; scientific satellites like the Hubble; Earth observation satellites from companies like Planet Labs, Umbra, and HawkEye 360; GPS; miniature CubeSats for education and research; and military/defense satellites.

Loading next visibility...
Identifier
63323, 2025-057S
Orbit
LEO
Country
Flag of USUS
Related business
Manufacturer
SpaceX/Seattle
Mission
Operational Commercial Communications
Bus & Motor
STARLINK V2MO, Unknown motor
Mass
575 kg wet, ~530 kg dry
Launch date (UTC)
2025-03-18 (1 year ago)
Launch vehicle
FALCON 9
Launch site
Air Force Eastern Test Range (AFETR)
Object type
Payload
Rocket body
Debris
Shape & HBR
Box + 2 Pan, 17.7 m
Radar Cross Section
36.964 m², Large (>1 m²)

Expand to show TLE details & history
Last TLE update: 17 hours ago

TLE from 17 hours ago
0 STARLINK-33607
1 63323U 25057S   26165.82645753  .00017889  00000-0  65762-3 0  9998
2 63323  43.0065 202.2422 0002653 257.6953 102.3602 15.27598519 70591
Epoch: 2026-06-14T19:50Z
TLE epoch observation values (Epoch: 2026-06-14T19:50:05.930Z)
Latitude
-0.00001°
Longitude
1.59586°
Altitude
483.16 km
Speed
7.625 km/s
True Right ascension
13h 28m 58s
True Declination
0° 00' 00"
Sunlit
Object was in full shadow at epoch
Visualization orbit readout
Latitude
Unknown
Longitude
Unknown
Altitude
Unknown
Speed
Unknown
Apparent Right ascension
Unknown
Apparent Declination
Unknown
Sunlit
N/A
Visualization observer readout
Local Sidereal Time
23:10:49
Azimuth
Unknown
Elevation
Unknown
Doppler factor
Unknown
Orbital elements
Apogee altitude
486.759 km
Perigee altitude
483.117 km
Semi-major axis
6,863.075 km
Eccentricity
0.00027
Inclination
43.0065°
RAAN
202.2422°
Arg. of periapsis
257.6953°
True anomaly
102.38989°
Mean anomaly
102.3602°
Eccentric anomaly
102.37505°
Mean motion
3.81738 °/min
Orbital period
94.31 mins
BSTAR
0.00065762
Loading maneuver chart data...
Computing Atmospheric mass density...
Loading historical data...
Loading historical data...
Loading historical data...
Loading historical data...
Loading historical data...
Loading historical data...
Loading historical data...

Documentation

Showing up to 5 results
|